Wind_Speed
20 20 20 20 20 20 21 22 22 21 20 20 22 22 24 24 25 25 26 26 27 29 31 34 36 37 38 39 40 41 42 43 44 44 44 45 45 44 44 44 44 44 45 46
20 20 21 20 20 21 22 22 22 22 22 22 23 23 24 26 27 26 26 27 28 30 31 33 35 37 38 40 40 41 42 43 43 43 44 44 44 43 41 42 42 42 44 44
19 20 21 21 20 21 22 22 23 23 22 23 24 25 25 27 28 29 28 29 30 31 31 33 34 35 37 38 40 42 42 41 41 41 41 42 43 42 41 41 42 42 42 42
20 20 22 21 20 20 21 22 23 23 24 24 25 26 26 27 28 30 30 30 30 32 33 34 35 36 37 38 38 39 39 39 39 39 40 40 40 41 42 41 41 41 41 41
21 21 21 21 20 20 21 21 22 23 24 24 25 25 26 27 28 29 30 31 31 32 34 35 35 36 37 38 37 37 37 37 37 37 37 38 38 39 39 39 39 39 39 40
21 22 22 21 20 21 21 21 21 23 23 24 25 26 26 27 28 29 31 31 31 32 33 34 34 35 35 37 37 36 35 35 35 35 35 36 36 36 36 37 38 38 37 38
21 22 22 21 21 21 21 22 22 23 24 25 26 26 26 27 28 29 30 31 31 32 32 32 32 32 33 33 33 33 33 33 34 34 34 35 35 35 35 36 37 37 37 37
21 22 21 21 22 22 22 23 24 25 26 26 27 27 27 28 29 29 29 30 31 31 31 30 30 31 31 31 32 32 32 32 33 34 34 35 35 35 35 35 35 35 35 36
22 22 23 22 22 23 24 24 25 26 27 27 27 28 29 29 29 30 30 30 30 29 29 29 29 29 29 30 30 31 31 31 31 32 32 33 33 33 33 33 33 32 33 33
23 23 23 23 23 24 25 25 25 26 27 27 28 28 29 29 29 29 29 29 29 28 28 29 29 28 29 29 29 29 29 30 30 30 31 32 32 32 32 31 31 31 31 32
22 22 23 23 24 24 25 25 26 26 27 27 27 27 27 28 28 27 27 27 27 27 27 28 28 28 28 28 28 28 28 28 28 29 29 29 30 30 31 30 30 30 31 31
21 22 23 24 24 25 25 26 27 27 27 27 27 27 27 27 27 27 27 26 26 26 27 27 28 28 28 28 28 28 27 26 26 27 27 28 28 28 28 28 28 28 29 30
23 23 24 24 24 25 26 26 26 26 26 26 27 27 27 27 27 27 26 27 26 26 26 27 27 27 27 27 27 27 26 26 26 25 26 25 25 24 24 25 25 27 27 28
23 23 23 24 25 25 25 25 26 26 26 27 27 27 27 26 26 26 26 26 25 25 26 26 26 26 26 27 26 26 26 26 25 24 23 23 23 23 23 24 25 25 26 26
23 24 24 25 25 26 26 26 26 26 26 27 27 27 26 26 25 25 25 25 24 25 25 25 25 25 25 26 26 26 26 25 24 23 22 21 21 22 22 23 24 25 25 26
24 25 26 27 27 27 27 27 27 27 26 26 26 25 25 25 25 24 24 24 24 24 24 24 24 25 25 25 25 25 25 24 23 22 21 20 21 21 22 23 23 24 24 25
26 27 28 28 28 28 27 27 27 26 25 25 24 24 24 23 23 23 24 24 24 23 23 23 24 25 25 25 25 24 24 23 23 23 22 21 21 21 21 22 22 23 23 24
27 27 28 28 28 28 27 27 26 25 25 25 24 24 23 23 23 23 23 23 24 23 23 24 24 24 24 24 24 24 23 23 23 23 23 22 22 21 21 20 20 20 22 23
27 27 27 27 28 28 27 26 26 25 25 25 25 24 24 23 23 22 23 23 23 24 24 24 24 24 24 24 24 23 23 22 22 22 22 22 22 21 20 19 19 19 20 21
26 27 26 26 26 25 25 25 25 25 25 25 25 25 25 24 24 23 24 24 23 24 24 24 24 24 24 24 24 23 22 22 22 22 22 21 21 21 20 19 19 19 19 20
26 26 26 26 25 25 24 24 23 24 24 24 24 24 24 24 24 24 24 24 24 24 24 24 24 23 23 23 23 22 22 22 22 21 21 21 20 20 20 19 19 19 19 19
25 25 25 25 25 24 23 23 24 24 24 24 24 24 24 24 24 24 24 23 23 23 23 23 23 22 22 22 21 21 20 20 20 21 21 20 20 20 19 19 19 18 18 18
25 24 24 23 23 22 22 23 23 24 25 25 25 25 25 25 24 24 24 23 23 23 23 23 23 22 22 21 21 20 20 20 19 19 19 19 19 19 18 19 19 19 19 19
23 23 22 22 21 21 21 21 22 23 24 24 25 25 25 25 24 24 23 23 23 23 23 23 23 22 22 21 21 21 20 19 19 18 18 18 18 18 18 18 18 19 19 20
22 22 22 22 22 21 21 22 22 23 23 23 23 24 24 24 24 23 22 22 22 22 22 22 22 22 22 21 21 20 19 19 19 19 19 18 18 18 19 19 19 19 19 20
22 22 22 21 21 21 21 22 22 22 22 22 22 22 22 22 22 22 22 22 22 22 22 21 21 21 21 20 20 19 19 19 19 19 19 19 19 19 19 19 20 20 20 20
22 22 21 21 21 22 22 21 21 20 20 21 21 21 20 20 20 21 21 22 21 21 21 21 21 21 20 20 19 19 19 18 18 18 18 18 18 18 18 18 19 19 20 20
Wind_Direction
260 261 261 261 262 264 266 269 271 271 270 267 269 269 271 273 273 271 269 266 265 267 268 270 271 271 272 272 272 271 272 272 272 271 270 269 270 269 269 268 267 265 264 262
261 261 263 261 261 264 266 269 271 271 270 270 272 272 273 273 274 274 272 269 271 273 274 274 273 273 275 274 274 273 274 274 273 272 271 270 270 268 268 267 266 265 264 263
262 261 262 261 264 265 267 269 271 273 275 276 275 275 275 275 276 276 275 273 272 275 278 279 276 276 277 277 276 275 275 274 273 272 271 270 269 268 267 267 265 265 265 263
263 261 261 262 263 266 267 270 274 276 277 278 279 278 279 279 278 278 279 277 277 278 280 282 281 280 279 280 277 275 274 273 274 274 272 270 268 268 267 267 266 266 265 263
264 264 264 265 267 268 270 271 275 278 280 282 282 283 283 284 283 282 281 282 282 282 282 283 283 284 284 283 281 276 275 275 276 275 273 271 270 269 268 267 266 266 265 264
265 267 269 269 271 273 274 275 278 280 282 283 285 286 286 285 285 284 283 284 285 284 284 285 285 286 287 286 283 280 277 277 278 276 274 273 272 271 270 268 266 266 266 265
264 267 269 272 275 277 278 280 282 282 283 284 287 289 288 287 287 287 286 286 286 286 286 286 287 287 289 288 285 282 280 280 280 278 275 274 271 269 270 271 269 267 266 265
262 265 269 273 276 278 280 282 283 284 286 287 287 289 290 288 287 287 288 287 287 287 287 288 288 289 290 291 289 284 282 282 281 280 278 275 272 272 273 273 271 268 266 264
262 265 269 272 276 279 281 283 284 285 286 287 287 288 288 289 288 288 288 288 287 286 286 287 289 290 291 292 291 287 284 283 283 281 279 277 276 275 275 273 270 266 263 261
264 266 269 272 275 278 281 283 284 285 286 287 288 289 288 289 289 290 290 288 286 286 286 287 289 289 291 292 292 291 288 285 283 281 280 278 277 277 275 272 268 265 264 263
268 270 272 274 276 278 280 283 285 286 287 288 289 290 290 291 291 291 291 289 287 287 286 286 287 288 289 291 292 291 289 287 284 282 280 278 277 277 274 271 268 267 266 265
270 273 274 275 276 278 280 283 285 286 288 289 290 290 290 291 292 291 291 289 287 287 286 286 286 287 287 288 290 290 288 288 286 284 283 281 278 275 273 269 267 266 267 266
272 273 274 276 278 279 281 284 286 287 288 290 290 290 291 292 292 291 291 289 287 286 286 286 287 287 286 287 289 289 288 288 288 287 286 284 279 275 272 270 268 268 267 267
273 274 276 278 279 280 282 285 286 287 288 289 289 290 290 291 293 292 292 289 286 285 286 287 288 287 286 288 290 289 287 286 288 288 288 283 280 277 274 272 270 268 268 267
277 278 278 279 281 282 283 284 285 287 288 288 288 289 289 290 291 292 293 292 288 287 287 288 288 288 287 288 288 287 286 285 285 287 288 285 281 278 276 275 272 269 268 268
280 280 280 281 282 282 283 284 285 287 289 289 289 289 288 288 289 291 293 293 290 288 288 289 289 289 289 287 287 286 284 282 282 283 285 286 284 282 280 278 276 272 269 267
282 282 283 283 284 284 283 284 285 286 288 289 289 289 290 289 290 291 292 292 291 289 289 289 290 291 290 288 287 286 284 281 280 282 282 284 285 284 282 280 277 274 271 268
284 285 286 285 284 284 284 284 284 285 287 289 291 291 291 291 290 291 292 293 293 291 290 290 290 290 290 289 287 285 283 281 280 281 280 282 284 285 283 282 279 276 271 268
286 288 289 288 286 285 284 284 284 285 287 290 292 293 292 292 292 293 293 294 294 291 291 292 292 292 290 288 286 285 283 282 281 282 282 282 283 283 283 282 280 277 274 271
288 289 290 290 289 288 287 286 285 286 288 291 292 292 291 291 292 292 293 294 293 291 290 292 292 292 291 289 287 284 283 283 281 281 283 283 282 281 280 278 277 276 274 274
289 290 290 289 289 289 287 287 287 288 290 292 292 291 291 292 292 292 292 293 293 293 291 292 293 294 293 291 289 286 285 284 282 280 280 281 281 280 278 277 277 276 277 276
288 289 289 288 288 286 285 285 287 288 289 289 289 289 291 292 293 293 293 292 293 294 294 292 293 294 294 292 290 287 286 284 282 280 278 278 279 280 279 276 275 276 277 279
288 289 288 288 288 286 285 286 287 288 287 287 286 286 287 289 290 290 290 291 292 293 293 292 291 292 293 292 290 288 287 285 282 279 276 275 275 275 275 274 274 275 278 280
289 289 289 289 288 286 286 288 289 289 289 288 286 285 285 286 288 288 289 290 291 293 293 292 290 289 290 290 289 287 286 284 282 279 278 276 275 273 272 273 275 276 278 281
289 290 289 288 289 288 288 289 290 290 290 289 287 285 285 287 288 288 288 289 291 293 293 293 292 290 289 289 288 286 284 282 280 279 277 276 275 272 271 272 275 278 281 283
289 289 288 289 290 290 290 290 290 290 290 289 289 289 289 289 288 288 289 290 291 293 294 294 294 293 291 289 287 285 283 282 280 278 277 275 274 274 274 275 276 278 281 283
288 288 289 290 290 290 290 290 290 290 290 290 292 292 293 293 292 290 289 290 291 293 294 294 293 293 292 291 290 287 285 283 281 279 278 278 277 277 277 278 279 280 281 282
Height
5637 5638 5638 5639 5639 5639 5639 5639 5639 5639 5638 5638 5636 5635 5635 5634 5633 5632 5631 5630 5629 5629 5628 5627 5626 5624 5623 5621 5619 5617 5616 5614 5612 5611 5609 5608 5607 5606 5606 5606 5606 5606 5607 5608
5632 5632 5632 5633 5633 5633 5633 5633 5632 5632 5632 5631 5630 5629 5628 5627 5626 5625 5624 5622 5621 5620 5619 5618 5616 5614 5613 5610 5608 5605 5603 5601 5599 5597 5596 5595 5594 5594 5593 5594 5593 5594 5594 5596
5626 5626 5626 5627 5629 5628 5628 5627 5627 5626 5627 5625 5624 5622 5621 5620 5618 5617 5616 5614 5613 5611 5610 5608 5606 5604 5602 5599 5596 5594 5591 5588 5586 5584 5583 5582 5582 5582 5581 5581 5581 5581 5582 5583
5620 5621 5620 5625 5623 5622 5622 5621 5621 5620 5619 5618 5617 5615 5614 5612 5610 5609 5607 5606 5604 5602 5600 5598 5595 5593 5591 5588 5585 5582 5580 5577 5575 5573 5571 5570 5569 5569 5569 5569 5569 5569 5570 5571
5613 5613 5614 5617 5617 5616 5616 5616 5615 5613 5612 5611 5609 5608 5607 5604 5602 5600 5599 5597 5595 5593 5591 5588 5585 5583 5580 5577 5574 5571 5569 5566 5564 5562 5560 5559 5558 5557 5557 5557 5557 5557 5558 5559
5607 5607 5608 5612 5611 5610 5610 5609 5608 5606 5605 5604 5602 5601 5600 5596 5594 5592 5590 5588 5586 5584 5581 5579 5576 5573 5570 5567 5564 5561 5558 5556 5554 5551 5550 5548 5547 5547 5546 5546 5545 5545 5546 5547
5600 5600 5601 5604 5604 5603 5604 5603 5601 5599 5597 5596 5594 5593 5591 5588 5585 5583 5581 5579 5576 5574 5572 5570 5567 5564 5561 5558 5555 5552 5549 5547 5544 5542 5540 5539 5538 5537 5536 5535 5535 5535 5535 5536
5593 5594 5597 5597 5596 5596 5596 5594 5592 5591 5589 5588 5586 5584 5582 5579 5577 5575 5572 5570 5567 5565 5563 5560 5558 5555 5552 5549 5546 5543 5540 5538 5535 5533 5531 5529 5528 5527 5526 5525 5525 5525 5525 5525
5588 5590 5589 5588 5588 5588 5587 5586 5584 5583 5581 5579 5577 5575 5573 5570 5568 5565 5563 5560 5558 5556 5554 5552 5549 5546 5544 5541 5537 5534 5531 5528 5526 5523 5521 5520 5518 5517 5516 5516 5515 5515 5515 5516
5580 5581 5581 5580 5580 5580 5579 5578 5576 5574 5573 5571 5569 5567 5564 5562 5559 5556 5554 5551 5549 5547 5545 5543 5540 5538 5535 5532 5529 5526 5523 5520 5517 5515 5512 5510 5509 5508 5507 5506 5506 5506 5506 5507
5572 5573 5573 5573 5572 5571 5570 5569 5567 5566 5564 5562 5560 5558 5556 5553 5551 5548 5545 5542 5540 5538 5536 5534 5532 5529 5526 5524 5521 5518 5514 5512 5509 5506 5504 5502 5500 5499 5498 5497 5497 5498 5498 5499
5565 5565 5565 5565 5564 5563 5562 5561 5559 5557 5555 5553 5551 5549 5547 5545 5542 5539 5537 5534 5532 5529 5527 5525 5523 5521 5518 5515 5512 5509 5506 5504 5501 5498 5496 5494 5492 5490 5489 5488 5488 5488 5489 5490
5557 5556 5556 5556 5555 5554 5553 5552 5550 5548 5547 5544 5542 5540 5538 5536 5533 5531 5528 5526 5523 5521 5519 5517 5515 5512 5510 5507 5504 5501 5499 5496 5493 5490 5488 5486 5484 5483 5481 5480 5480 5480 5480 5481
5548 5548 5548 5547 5546 5545 5544 5543 5541 5540 5538 5536 5534 5531 5529 5527 5524 5522 5519 5517 5515 5513 5511 5509 5506 5504 5501 5499 5496 5494 5491 5489 5486 5484 5481 5479 5477 5475 5474 5473 5473 5472 5472 5473
5541 5540 5539 5539 5538 5536 5535 5534 5532 5531 5529 5527 5525 5523 5520 5518 5515 5513 5510 5508 5506 5504 5502 5500 5498 5496 5493 5491 5488 5486 5484 5482 5479 5477 5475 5472 5470 5469 5468 5467 5466 5466 5466 5465
5533 5532 5531 5530 5529 5528 5526 5525 5524 5522 5520 5518 5516 5514 5512 5509 5507 5505 5502 5500 5498 5496 5494 5492 5490 5487 5485 5483 5481 5478 5476 5474 5472 5470 5468 5466 5464 5463 5461 5460 5459 5459 5458 5458
5524 5523 5522 5521 5520 5518 5517 5516 5514 5513 5511 5509 5507 5505 5503 5501 5499 5497 5495 5492 5490 5488 5486 5484 5482 5479 5477 5475 5473 5471 5469 5467 5465 5464 5462 5460 5458 5457 5455 5454 5453 5452 5451 5451
5515 5514 5512 5511 5510 5509 5508 5507 5505 5504 5503 5501 5499 5497 5495 5493 5491 5489 5487 5485 5483 5481 5479 5476 5474 5471 5469 5467 5465 5463 5461 5460 5458 5457 5455 5454 5452 5450 5449 5447 5446 5446 5445 5445
5506 5505 5504 5502 5501 5499 5498 5497 5496 5495 5494 5492 5491 5489 5487 5485 5483 5481 5479 5477 5475 5473 5471 5468 5466 5463 5461 5459 5457 5455 5454 5452 5451 5450 5449 5447 5446 5444 5443 5442 5441 5440 5439 5439
5498 5496 5495 5493 5492 5491 5490 5489 5488 5487 5486 5484 5482 5480 5479 5477 5475 5473 5472 5470 5468 5465 5463 5460 5458 5456 5453 5451 5449 5448 5447 5445 5444 5443 5442 5440 5439 5438 5437 5436 5435 5434 5433 5433
5489 5488 5486 5485 5484 5483 5482 5481 5480 5479 5478 5476 5474 5472 5471 5469 5467 5465 5464 5462 5460 5457 5455 5453 5450 5448 5446 5444 5442 5441 5439 5438 5437 5436 5435 5434 5432 5432 5431 5430 5429 5428 5427 5427
5481 5480 5479 5477 5476 5475 5474 5473 5472 5471 5469 5468 5466 5465 5463 5461 5460 5458 5456 5454 5452 5450 5448 5445 5443 5441 5439 5437 5435 5433 5432 5431 5430 5429 5428 5427 5426 5425 5424 5424 5423 5422 5422 5421
5473 5472 5471 5469 5468 5467 5466 5465 5464 5462 5461 5460 5458 5457 5455 5453 5452 5450 5449 5447 5444 5442 5440 5438 5436 5434 5432 5430 5428 5427 5426 5424 5423 5422 5421 5420 5419 5419 5418 5418 5417 5417 5416 5415
5466 5465 5463 5462 5461 5460 5459 5458 5456 5454 5453 5451 5450 5448 5447 5445 5443 5442 5440 5439 5437 5435 5433 5431 5429 5428 5426 5424 5422 5421 5419 5418 5417 5416 5415 5414 5413 5412 5412 5411 5411 5410 5410 5409
5459 5457 5456 5455 5453 5452 5451 5450 5449 5447 5445 5443 5442 5440 5438 5437 5435 5434 5432 5431 5430 5428 5426 5424 5423 5421 5419 5417 5416 5414 5413 5411 5410 5410 5409 5408 5407 5407 5406 5406 5405 5405 5404 5403
5452 5450 5449 5448 5446 5445 5444 5442 5441 5439 5438 5436 5434 5433 5431 5429 5428 5426 5425 5424 5422 5421 5419 5418 5416 5414 5412 5411 5409 5408 5406 5405 5404 5403 5402 5402 5401 5400 5400 5400 5399 5399 5398 5397
5445 5443 5442 5441 5439 5438 5436 5435 5434 5432 5431 5429 5428 5426 5424 5422 5421 5419 5418 5417 5416 5414 5412 5411 5409 5407 5406 5404 5403 5401 5400 5399 5398 5398 5397 5396 5395 5395 5394 5394 5393 5393 5392 5391